Douglas Bisbee, AZ

1:11 AM MST on January 20, 2018 (GMT -0700)
Bisbee Douglas International

Weather History for KDUG - June, 2014

Change the Weather History Date:

Sunday, June 8, 2014

  Actual Average Record
Temperature  
Mean Temperature 80 °F 76 °F  
Max Temperature 96 °F 95 °F 103 °F (1985)
Min Temperature 63 °F 58 °F 45 °F (1993)
Degree Days  
Heating Degree Days 0 0  
Month to date heating degree days 0 0  
Since 1 June heating degree days 0 0  
Since 1 July heating degree days 2361 2522  
Cooling Degree Days 15 12  
Month to date cooling degree days 125 84  
Year to date cooling degree days 293 285  
Since 1 June cooling degree days 125 84  
Growing Degree Days 30 (Base 50)    
Moisture  
Dew Point 37 °F    
Average Humidity 22    
Maximum Humidity 31    
Minimum Humidity 12    
Precipitation  
Precipitation 0.00 in 0.01 in 0.15 in (2000)
Month to date precipitation 0.00 0.08  
Year to date precipitation 0.57 2.48  
Sea Level Pressure  
Sea Level Pressure 29.70 in    
Wind  
Wind Speed 8 mph (NW)    
Max Wind Speed 21 mph    
Max Gust Speed 29 mph    
Visibility 10 miles    
Events      
T = Trace of Precipitation, MM = Missing Value Source: NWS Daily Summary

Daily Weather History Graph

Daily Weather History Graph

Search for Another Location

Airport or City:

Trip Planner

Search our weather history database for the weather conditions in past years. The results will help you decide how hot, cold, wet, or windy it might be!

Date:

Astronomy

Jun. 08, 2014 Rise Set
Actual Time 5:13 AM MST 7:21 PM MST
Civil Twilight 4:45 AM MST 7:49 PM MST
Nautical Twilight 4:11 AM MST 8:23 PM MST
Astronomical Twilight 3:34 AM MST 9:00 PM MST
Moon 2:58 PM MST (6/8) 1:51 AM MST (6/8)
Length of Visible Light 15h 04m
Length of Day
14h 08m
Waxing Gibbous, 78% of the Moon is Illuminated
Jun 8
Waxing Gibbous
Jun 12
Full
Jun 19
Last Quarter
Jun 27
New
Jul 5
First Quarter

Hourly Weather History & Observations

Time (MST) Temp. Dew Point Humidity Pressure Visibility Wind Dir Wind Speed Gust Speed Precip Events Conditions
12:56 AM 70.0 °F 33.1 °F 26% 29.68 in 10.0 mi East 4.6 mph - N/A   Clear
1:56 AM 70.0 °F 35.1 °F 28% 29.68 in 10.0 mi East 6.9 mph - N/A   Clear
2:56 AM 64.9 °F 33.1 °F 31% 29.69 in 10.0 mi East 4.6 mph - N/A   Clear
3:56 AM 64.0 °F 30.9 °F 29% 29.70 in 10.0 mi NNE 8.1 mph - N/A   Clear
4:56 AM 64.0 °F 33.1 °F 31% 29.72 in 10.0 mi NE 8.1 mph - N/A   Clear
5:56 AM 64.9 °F 33.1 °F 31% 29.75 in 10.0 mi NNE 3.5 mph - N/A   Clear
6:56 AM 75.9 °F 36.0 °F 23% 29.74 in 10.0 mi NNW 4.6 mph - N/A   Clear
7:56 AM 80.1 °F 43.0 °F 27% 29.76 in 10.0 mi Calm Calm - N/A   Clear
8:56 AM 82.0 °F 46.9 °F 29% 29.75 in 10.0 mi SSW 9.2 mph - N/A   Clear
10:56 AM 86.0 °F 48.9 °F 28% 29.75 in 10.0 mi Variable 6.9 mph - N/A   Clear
11:56 AM 89.1 °F 48.9 °F 25% 29.74 in 10.0 mi North 9.2 mph - N/A   Clear
12:56 PM 90.0 °F 45.0 °F 21% 29.70 in 10.0 mi North - - N/A   Clear
1:56 PM 93.9 °F 37.9 °F 14% 29.67 in 10.0 mi WNW 16.1 mph 25.3 mph N/A   Clear
2:56 PM 93.0 °F 41.0 °F 16% 29.67 in 10.0 mi West 9.2 mph - N/A   Partly Cloudy
3:56 PM 93.0 °F 37.9 °F 15% 29.65 in 10.0 mi SW 8.1 mph 21.9 mph N/A   Clear
4:56 PM 95.0 °F 36.0 °F 13% 29.62 in 10.0 mi West 11.5 mph 17.3 mph N/A   Mostly Cloudy
5:56 PM 93.9 °F 32.0 °F 11% 29.62 in 10.0 mi WNW 12.7 mph - N/A   Clear
6:56 PM 90.0 °F 39.0 °F 17% 29.63 in 10.0 mi NW 12.7 mph - N/A   Partly Cloudy
7:56 PM 82.9 °F 39.0 °F 21% 29.66 in 10.0 mi West 6.9 mph - N/A   Clear
8:56 PM 82.9 °F 28.9 °F 14% 29.68 in 10.0 mi West 10.4 mph - N/A   Clear
9:56 PM 75.9 °F 28.0 °F 17% 29.71 in 10.0 mi West 5.8 mph - N/A   Clear
10:56 PM 73.0 °F 28.0 °F 19% 29.73 in 10.0 mi North 4.6 mph - N/A   Clear
11:56 PM 73.0 °F 28.9 °F 20% 29.73 in 10.0 mi NNW 8.1 mph - N/A   Clear